FDX111 KDFW-KJFK

Flight info

Callsign FDX111
Flight time 3h 2m
Altitude 33000
Route TRYTN4 LOOSE MEMFS Q29 JHW Q476 WLKES PUCKY1
Aircraft B77L/H-SDE1E2E3FGHIJ2J3J4J5M1RWXY/LB1D1

Departure

Time 2026-04-30 15:06
Airport Dallas Fort Worth International Airport (KDFW)

Arrival

Time 2026-04-30 18:09
Airport John F. Kennedy International Airport (KJFK)
Time Latitude Longitude Altitude Speed Heading
2026-04-30 14:46 32.89728 -97.05918 620 ft 0 kts 359°
2026-04-30 14:52 32.89718 -97.05918 620 ft 4 kts 357°
2026-04-30 14:52 32.89708 -97.05917 634 ft 4 kts 355°
2026-04-30 14:53 32.89685 -97.05915 634 ft 4 kts 355°
2026-04-30 14:54 32.89647 -97.05918 627 ft 3 kts 70°
2026-04-30 14:54 32.89645 -97.05921 626 ft 0 kts 76°
2026-04-30 15:00 32.89654 -97.05882 627 ft 6 kts 76°
2026-04-30 15:00 32.89484 -97.05789 614 ft 18 kts 180°
2026-04-30 15:01 32.89229 -97.05791 614 ft 18 kts 175°
2026-04-30 15:01 32.89143 -97.05790 615 ft 18 kts 188°
2026-04-30 15:01 32.88845 -97.05795 617 ft 18 kts 178°
2026-04-30 15:02 32.88717 -97.05797 612 ft 18 kts 181°
2026-04-30 15:02 32.88588 -97.05799 602 ft 18 kts 179°
2026-04-30 15:03 32.88107 -97.05800 596 ft 24 kts 180°
2026-04-30 15:03 32.87915 -97.05710 599 ft 15 kts 94°
2026-04-30 15:04 32.87912 -97.05467 599 ft 15 kts 90°
2026-04-30 15:04 32.87932 -97.05111 596 ft 15 kts 34°
2026-04-30 15:05 32.88020 -97.05095 597 ft 18 kts 360°
2026-04-30 15:06 32.89152 -97.05079 599 ft 168 kts
2026-04-30 15:06 32.92107 -97.05091 1288 ft 243 kts 356°
2026-04-30 15:07 32.95309 -97.04310 3454 ft 240 kts 16°
2026-04-30 15:07 32.98767 -97.03788 4635 ft 260 kts
2026-04-30 15:08 33.02438 -97.03277 5029 ft 271 kts
2026-04-30 15:08 33.07057 -97.00102 5038 ft 261 kts 44°
2026-04-30 15:09 33.09212 -96.96880 5042 ft 251 kts 85°
2026-04-30 15:09 33.08545 -96.92806 5055 ft 258 kts 110°
2026-04-30 15:10 33.07639 -96.88634 5868 ft 272 kts 101°
2026-04-30 15:11 33.05714 -96.79147 7692 ft 316 kts 114°
2026-04-30 15:11 33.03944 -96.74271 8985 ft 325 kts 115°
2026-04-30 15:12 33.01232 -96.66626 10698 ft 345 kts 114°
2026-04-30 15:13 32.99378 -96.61276 11991 ft 354 kts 114°
2026-04-30 15:14 32.95513 -96.50084 14697 ft 376 kts 114°
2026-04-30 15:14 32.92498 -96.41365 16657 ft 388 kts 114°
2026-04-30 15:16 32.92079 -96.25714 19269 ft 408 kts 65°
2026-04-30 15:17 32.96358 -96.12876 21293 ft 429 kts 67°
2026-04-30 15:18 33.01870 -95.95801 23728 ft 457 kts 68°
2026-04-30 15:19 33.05313 -95.85079 25087 ft 467 kts 67°
2026-04-30 17:39 40.95183 -74.49539 18825 ft 368 kts 104°
2026-04-30 17:41 40.92110 -74.23932 18831 ft 370 kts 104°
2026-04-30 17:42 40.91293 -74.17200 18823 ft 371 kts 104°
2026-04-30 17:42 40.88974 -74.08844 18809 ft 341 kts 145°
2026-04-30 17:43 40.84979 -74.05850 18166 ft 333 kts 166°
2026-04-30 17:44 40.78478 -74.02536 16612 ft 335 kts 167°
2026-04-30 17:44 40.71903 -73.99335 15135 ft 336 kts 167°
2026-04-30 17:46 40.60956 -73.94114 12997 ft 327 kts 167°
2026-04-30 17:47 40.52686 -73.90251 10817 ft 303 kts 167°
2026-04-30 17:48 40.44962 -73.86859 8589 ft 285 kts 167°
2026-04-30 17:48 40.39305 -73.84561 8017 ft 284 kts 167°
2026-04-30 17:49 40.31969 -73.81243 8003 ft 284 kts 144°
2026-04-30 17:50 40.30962 -73.71236 8013 ft 303 kts 71°
2026-04-30 17:51 40.35449 -73.65747 8033 ft 303 kts 28°
2026-04-30 17:52 40.40956 -73.61583 7116 ft 312 kts 27°
2026-04-30 17:53 40.50731 -73.54453 4250 ft 326 kts 27°
2026-04-30 17:54 40.57971 -73.49201 3967 ft 264 kts 27°
2026-04-30 17:55 40.63933 -73.44862 3977 ft 237 kts 27°
2026-04-30 17:56 40.69573 -73.40765 3984 ft 229 kts 27°
2026-04-30 17:57 40.73596 -73.37832 3991 ft 218 kts 27°
2026-04-30 17:58 40.77497 -73.34991 4039 ft 202 kts 27°
2026-04-30 17:59 40.81815 -73.35623 4023 ft 188 kts 297°
2026-04-30 18:00 40.84221 -73.41632 3995 ft 183 kts 297°
2026-04-30 18:00 40.84555 -73.46376 4011 ft 187 kts 257°
2026-04-30 18:01 40.83929 -73.49707 3992 ft 186 kts 257°
2026-04-30 18:02 40.82977 -73.54731 3343 ft 197 kts 257°
2026-04-30 18:02 40.81973 -73.59983 2012 ft 181 kts 255°
2026-04-30 18:03 40.79541 -73.63627 2023 ft 174 kts 217°
2026-04-30 18:04 40.76705 -73.65917 1981 ft 144 kts 213°
2026-04-30 18:05 40.73400 -73.68208 1831 ft 148 kts 211°
2026-04-30 18:06 40.69563 -73.71078 1127 ft 154 kts 221°
2026-04-30 18:07 40.66130 -73.74242 523 ft 160 kts 206°
2026-04-30 18:08 40.63675 -73.76158 27 ft 73 kts 210°
2026-04-30 18:09 40.62994 -73.77114 30 ft 22 kts 307°
2026-04-30 18:10 40.63302 -73.77762 28 ft 20 kts 307°
2026-04-30 18:11 40.63582 -73.78422 31 ft 21 kts 300°
2026-04-30 18:11 40.63803 -73.78907 28 ft 21 kts 302°
2026-04-30 18:12 40.64023 -73.79395 30 ft 21 kts 300°
2026-04-30 18:13 40.64270 -73.79497 28 ft 17 kts
2026-04-30 18:13 40.64584 -73.79523 27 ft 17 kts 343°
2026-04-30 18:14 40.64653 -73.79573 26 ft 17 kts 326°